Stations météo

Publicité
La Rochelle/Ile de Re, France (7316): Température de l'air & dewpoint: 14.09.2018 00:00:00 - 20.09.2018 00:00:00 (CEST)La Rochelle/Ile de Re, France (7316): Vitesse du vent & gusts: 14.09.2018 00:00:00 - 20.09.2018 00:00:00 (CEST)La Rochelle/Ile de Re, France (7316): Direction du vent: 14.09.2018 00:00:00 - 20.09.2018 00:00:00 (CEST)La Rochelle/Ile de Re, France (7316): reduced air pressure: 14.09.2018 00:00:00 - 20.09.2018 00:00:00 (CEST)La Rochelle/Ile de Re, France (7316): visibility: 14.09.2018 00:00:00 - 20.09.2018 00:00:00 (CEST)La Rochelle/Ile de Re, France (7316): Ensoleillement: 14.09.2018 00:00:00 - 20.09.2018 00:00:00 (CEST)La Rochelle/Ile de Re, France (7316): Quantités de précipitations: 14.09.2018 00:00:00 - 20.09.2018 00:00:00 (CEST)
Date & Time tt [°C] td [°C] ff [km/h] ff [knt] fx [km/h] fx [knt] dd ppp [hPa] vv [km] sd [min] rr [mm]
20.09.2018 00:00:00 18,4 16,6 2 1 11 6 WSW 1022,0 13 0 0,0
19.09.2018 23:00:00 18,6 16,7 5 3 9 5 W 1022,0 13 0 0,0
19.09.2018 22:00:00 19,6 16,6 5 3 11 6 WSW 1021,9 20 0 0,0
19.09.2018 21:00:00 19,7 16,0 5 3 13 7 WSW 1021,7 20 0 0,0
19.09.2018 20:00:00 20,5 16,1 9 5 19 10 WSW 1021,6 20 46 0,0
19.09.2018 19:00:00 21,6 16,3 14 8 19 10 WSW 1021,6 20 60 0,0
19.09.2018 18:00:00 22,5 16,1 14 8 25 13 W 1021,4 19 60 0,0
19.09.2018 17:00:00 23,3 16,1 14 8 24 13 W 1021,5 25 60 0,0
19.09.2018 16:00:00 23,4 15,7 15 8 26 14 W 1022,0 45 36 0,0
19.09.2018 15:00:00 23,4 16,2 14 8 25 13 WSW 1022,2 19 42 0,0
19.09.2018 14:00:00 22,9 16,7 15 8 23 12 SW 1022,3 19 20 0,0
19.09.2018 13:00:00 22,0 16,3 14 8 25 13 SW 1022,4 42 0 0,0
19.09.2018 12:00:00 21,9 17,1 16 9 24 13 SW 1022,3 19 49 0,0
19.09.2018 11:00:00 20,7 17,3 18 10 23 13 SSW 1021,5 18 60 0,0
19.09.2018 10:00:00 19,5 18,0 14 7 21 11 S 1020,7 20 49 0,0
19.09.2018 09:00:00 18,4 17,7 11 6 19 10 S 1020,3 10 18 0,0
19.09.2018 08:00:00 18,1 17,3 8 4 11 6 SSW 1020,1 10 0 0,0
19.09.2018 07:00:00 18,0 17,0 6 3 10 6 SW 1019,7 14 0 0,2
19.09.2018 06:00:00 18,0 16,8 6 4 9 5 SW 1019,4 12 0 0,0
19.09.2018 05:00:00 18,0 16,7 5 3 12 6 SW 1019,5 15 0 0,0
19.09.2018 04:00:00 18,3 16,8 8 5 12 6 WSW 1019,4 14 0 0,0
19.09.2018 03:00:00 18,6 16,9 6 4 11 6 SW 1019,2 17 0 0,0
19.09.2018 02:00:00 19,0 17,3 9 5 19 10 W 1019,2 17 0 0,0
19.09.2018 01:00:00 19,2 17,7 11 6 18 10 W 1019,6 17 0 0,0
19.09.2018 00:00:00 18,6 17,3 9 5 16 9 WNW 1019,1 19 0 0,0
18.09.2018 23:00:00 18,9 17,2 9 5 13 7 WNW 1018,8 16 0 0,0
18.09.2018 22:00:00 19,2 16,6 6 3 12 7 W 1018,6 18 0 0,0
18.09.2018 21:00:00 19,2 15,7 8 5 11 6 WNW 1018,0 42 0 0,0
18.09.2018 20:00:00 20,8 16,4 6 3 13 7 WNW 1017,6 53 48 0,0
18.09.2018 19:00:00 22,3 16,3 7 4 20 11 N 1017,2 52 54 0,0
18.09.2018 18:00:00 22,6 15,9 13 7 20 11 N 1017,2 54 54 0,0
18.09.2018 17:00:00 23,8 15,6 17 9 24 13 NNW 1017,2 55 54 0,0
18.09.2018 16:00:00 24,1 17,1 9 5 20 11 WNW 1017,3 20 51 0,0
18.09.2018 15:00:00 23,3 17,3 13 7 21 11 W 1017,3 20 21 0,0
18.09.2018 14:00:00 22,9 16,7 14 8 22 12 W 1017,5 22 26 0,0
18.09.2018 13:00:00 23,3 18,0 13 7 19 11 WSW 1017,5 19 31 0,0
18.09.2018 12:00:00 22,0 18,6 12 6 18 10 SW 1017,6 13 26 0,0
18.09.2018 11:00:00 20,7 18,3 13 7 19 10 SSW 1017,3 14 12 0,0
18.09.2018 10:00:00 19,9 18,4 11 6 16 8 S 1016,7 13 0 0,0
18.09.2018 09:00:00 19,3 18,1 11 6 17 9 SSW 1016,4 9 0 0,0
18.09.2018 08:00:00 19,0 18,0 5 3 8 4 SW 1015,2 10 0 0,0
18.09.2018 07:00:00 18,7 17,7 3 2 6 3 NW 1014,7 9 0 0,0
18.09.2018 06:00:00 18,9 18,1 3 2 11 6 WSW 1014,9 10 0 0,0
18.09.2018 05:00:00 19,2 18,5 7 4 16 9 SW 1015,0 7 0 0,0
18.09.2018 04:00:00 19,0 18,3 7 4 13 7 WNW 1014,6 0,2 0 0,0
18.09.2018 03:00:00 18,7 17,7 3 1 15 8 SW 1014,7 5 0 0,0
18.09.2018 02:00:00 18,9 17,9 10 5 16 9 W 1014,8 3,4 0 0,0
18.09.2018 01:00:00 18,7 17,4 10 5 21 11 WNW 1014,1 8 0 0,0
18.09.2018 00:00:00 19,0 16,2 8 4 12 7 WNW 1013,8 20 0 0,0
17.09.2018 23:00:00 19,5 16,3 5 3 10 5 W 1013,5 29 0 0,0
17.09.2018 22:00:00 19,2 15,7 5 3 7 4 W 1013,3 32 0 0,0
17.09.2018 21:00:00 20,7 16,3 0 0 15 8 N 1012,8 46 0 0,0
17.09.2018 20:00:00 23,6 15,4 10 5 18 10 W 1012,8 50 50 0,0
17.09.2018 19:00:00 26,1 15,5 8 4 16 9 W 1013,0 32 60 0,0
17.09.2018 18:00:00 25,7 16,0 8 5 17 9 N 1013,4 53 60 0,0
17.09.2018 17:00:00 27,9 14,9 7 4 14 8 NW 1013,9 20 60 0,0
17.09.2018 16:00:00 28,0 13,5 8 4 25 13 W 1014,4 48 60 0,0
17.09.2018 15:00:00 27,1 14,1 19 11 29 16 SW 1014,8 47 60 0,0
17.09.2018 14:00:00 26,3 12,4 16 9 26 14 SSW 1015,4 56 60 0,0
17.09.2018 13:00:00 24,4 11,4 12 7 24 13 SSW 1016,2 60 60 0,0
17.09.2018 12:00:00 23,5 9,5 14 8 21 11 S 1016,8 60 60 0,0
17.09.2018 11:00:00 23,2 10,9 5 3 14 8 SE 1017,2 53 60 0,0
17.09.2018 10:00:00 20,6 10,7 5 3 11 6 S 1017,4 31 60 0,0
17.09.2018 09:00:00 14,8 11,8 6 3 10 5 SE 1018,1 42 27 0,0
17.09.2018 08:00:00 12,2 9,4 4 2 10 6 SSE 1017,9 44 0 0,0
17.09.2018 07:00:00 12,4 10,1 6 4 12 7 SE 1017,8 57 0 0,0
17.09.2018 06:00:00 12,6 9,8 5 3 8 4 E 1018,2 60 0 0,0
17.09.2018 05:00:00 15,1 11,1 4 2 6 3 NE 1018,7 60 0 0,0
17.09.2018 04:00:00 14,8 10,2 2 1 7 4 NNE 1019,1 60 0 0,0
17.09.2018 03:00:00 15,2 10,0 0 0 9 5 N 1019,3 60 0 0,0
17.09.2018 02:00:00 17,0 12,1 6 4 11 6 N 1019,8 60 0 0,0
17.09.2018 01:00:00 17,2 14,1 9 5 12 7 NNW 1020,2 60 0 0,0
17.09.2018 00:00:00 17,0 13,5 13 7 16 9 NW 1020,4 60 0 0,0
16.09.2018 23:00:00 17,9 11,7 8 4 10 5 NW 1020,5 60 0 0,0
16.09.2018 22:00:00 17,2 12,5 7 4 13 7 NW 1020,5 60 0 0,0
16.09.2018 21:00:00 18,4 13,5 6 4 9 5 WNW 1020,3 60 0 0,0
16.09.2018 20:00:00 20,2 13,4 8 4 15 8 NNW 1020,0 60 45 0,0
16.09.2018 19:00:00 21,7 13,1 6 3 11 6 N 1019,7 60 35 0,0
16.09.2018 18:00:00 23,7 8,9 5 3 9 5 W 1019,6 60 7 0,0
16.09.2018 17:00:00 23,4 10,8 6 4 11 6 NW 1019,8 60 15 0,0
16.09.2018 16:00:00 23,2 9,9 10 5 14 7 NNW 1020,1 58 23 0,0
16.09.2018 15:00:00 23,8 9,4 10 5 14 8 NW 1020,3 57 21 0,0
16.09.2018 14:00:00 23,5 8,7 8 4 16 9 NNW 1020,5 19 58 0,0
16.09.2018 13:00:00 23,2 8,5 7 4 17 9 NNW 1020,7 43 60 0,0
16.09.2018 12:00:00 21,9 10,4 5 3 11 6 NNW 1020,7 20 60 0,0
16.09.2018 11:00:00 21,5 8,7 2 1 10 5 SSW 1020,5 20 60 0,0
16.09.2018 10:00:00 18,3 8,0 6 3 14 8 ESE 1020,4 55 60 0,0
16.09.2018 09:00:00 14,8 7,8 9 5 13 7 SE 1020,3 55 54 0,0
16.09.2018 08:00:00 11,3 6,4 7 4 8 5 ESE 1019,9 60 0 0,0
16.09.2018 07:00:00 11,7 6,4 4 2 8 5 E 1019,8 60 0 0,0
16.09.2018 06:00:00 12,1 6,4 6 3 8 4 ENE 1019,7 60 0 0,0
16.09.2018 05:00:00 12,9 6,7 6 3 18 10 NE 1019,7 60 0 0,0
16.09.2018 04:00:00 14,0 6,8 14 8 21 11 ESE 1020,0 60 0 0,0
16.09.2018 03:00:00 15,0 7,0 14 8 19 11 E 1020,6 60 0 0,0
16.09.2018 02:00:00 15,3 7,1 13 7 22 12 E 1020,9 60 0 0,0
16.09.2018 01:00:00 16,2 7,1 13 7 19 11 E 1021,4 60 0 0,0
16.09.2018 00:00:00 17,0 7,1 14 8 21 12 E 1021,9 60 0 0,0
15.09.2018 23:00:00 17,2 7,0 13 7 19 10 E 1022,3 60 0 0,0
15.09.2018 22:00:00 17,7 6,5 13 7 16 9 ENE 1022,3 60 0 0,0
15.09.2018 21:00:00 19,5 6,2 11 6 15 8 E 1022,0 60 0 0,0
15.09.2018 20:00:00 22,8 6,5 14 7 22 12 E 1021,9 60 54 0,0
15.09.2018 19:00:00 24,5 6,3 14 8 25 14 E 1021,7 60 60 0,0
15.09.2018 18:00:00 25,0 6,7 15 8 39 21 ESE 1022,0 47 60 0,0
15.09.2018 17:00:00 25,1 7,2 13 7 32 18 ESE 1022,5 49 60 0,0
15.09.2018 16:00:00 24,9 7,1 20 11 34 18 ENE 1022,8 53 60 0,0
15.09.2018 15:00:00 24,3 7,0 16 9 35 19 E 1023,5 53 60 0,0
15.09.2018 14:00:00 23,2 7,3 19 10 31 17 E 1024,0 53 60 0,0
15.09.2018 13:00:00 22,2 7,6 20 11 32 18 E 1024,7 58 60 0,0
15.09.2018 12:00:00 20,6 7,9 21 12 29 16 E 1025,6 60 60 0,0
15.09.2018 11:00:00 18,3 8,3 19 10 31 17 E 1025,8 60 60 0,0
15.09.2018 10:00:00 15,7 8,2 17 9 25 13 E 1025,8 60 60 0,0
15.09.2018 09:00:00 13,0 8,1 16 8 22 12 ENE 1025,4 60 56 0,0
15.09.2018 08:00:00 10,7 7,2 13 7 23 12 E 1025,0 60 0 0,0
15.09.2018 07:00:00 11,4 7,5 16 9 22 12 E 1024,8 60 0 0,0
15.09.2018 06:00:00 11,4 7,3 13 7 19 10 E 1024,7 60 0 0,0
15.09.2018 05:00:00 11,5 7,0 13 7 18 10 ENE 1024,9 60 0 0,0
15.09.2018 04:00:00 11,7 7,0 12 6 19 11 ENE 1024,8 60 0 0,0
15.09.2018 03:00:00 12,9 7,1 16 9 19 11 ENE 1024,9 60 0 0,0
15.09.2018 02:00:00 13,3 6,9 14 7 20 11 ENE 1024,7 60 0 0,0
15.09.2018 01:00:00 14,7 7,0 15 8 23 13 ENE 1024,5 60 0 0,0
15.09.2018 00:00:00 16,0 8,7 13 7 23 12 NE 1024,3 60 0 0,0
14.09.2018 23:00:00 17,3 9,0 14 7 22 12 NE 1024,1 60 0 0,0
14.09.2018 22:00:00 17,7 9,8 13 7 21 11 NNE 1023,7 60 0 0,0
14.09.2018 21:00:00 17,3 13,8 16 9 29 16 NW 1022,8 59 0 0,0
14.09.2018 20:00:00 17,9 12,6 25 14 38 20 NW 1022,5 56 56 0,0
14.09.2018 19:00:00 19,6 12,1 26 14 35 19 NNW 1022,2 39 60 0,0
14.09.2018 18:00:00 20,3 11,5 24 13 34 19 NW 1022,2 41 60 0,0
14.09.2018 17:00:00 20,9 12,1 27 14 35 19 NNW 1022,2 47 60 0,0
14.09.2018 16:00:00 21,5 12,1 25 13 31 17 NNW 1022,4 58 60 0,0
14.09.2018 15:00:00 21,7 11,1 14 8 22 12 NNW 1022,5 60 60 0,0
14.09.2018 14:00:00 21,7 11,7 14 7 21 11 NNW 1022,8 60 39 0,0
14.09.2018 13:00:00 20,6 12,0 15 8 20 11 N 1022,9 40 26 0,0
14.09.2018 12:00:00 20,6 12,6 13 7 22 12 NNE 1023,3 60 60 0,0
14.09.2018 11:00:00 18,2 12,2 13 7 21 11 NE 1023,1 44 12 0,0
14.09.2018 10:00:00 17,0 12,1 14 8 19 11 NE 1022,8 45 0 0,0
14.09.2018 09:00:00 16,2 12,0 11 6 22 12 NE 1022,4 50 0 0,0
14.09.2018 08:00:00 16,3 12,3 8 4 21 12 NNE 1022,2 52 0 0,0
14.09.2018 07:00:00 16,3 12,1 14 8 21 11 ENE 1021,8 59 0 0,0
14.09.2018 06:00:00 16,6 11,9 11 6 21 11 ENE 1021,7 60 0 0,0
14.09.2018 05:00:00 16,8 12,1 14 7 23 12 NE 1022,0 60 0 0,0
14.09.2018 04:00:00 17,0 12,1 15 8 22 12 NE 1022,0 60 0 0,0
14.09.2018 03:00:00 17,3 11,8 19 11 28 15 NE 1022,2 60 0 0,0
14.09.2018 02:00:00 18,2 12,9 14 8 22 12 NE 1022,3 60 0 0,0
14.09.2018 01:00:00 18,7 12,9 14 7 21 12 NE 1022,4 60 0 0,0
14.09.2018 00:00:00 19,1 13,3 16 8 24 13 NE 1022,2 60 0 0,0

tt = Température de l'air
td = dewpoint
ff = Vitesse du vent
fx = gusts
dd = Direction du vent
ppp = reduced air pressure
vv = visibility
sd = Ensoleillement
rr = Quantités de précipitations

stations d'obs. à proximité